Regional Weather Roundup
Issued by NWS Charleston, SC

Current Version | Previous Version | Graphics & Text | Print | Product List | Glossary On
Versions: 1 2 3 4 5 6 7 8 9 10 11 12 13 14 15 16 17 18 19 20 21 22 23 24 25 26 27 28 29 30 31 32 33 34 35 36 37 38 39 40 41 42 43 44 45 46 47 48 49 50
260
ASUS42 KCHS 200412
RWRCHS

REGIONAL WEATHER ROUNDUP
NATIONAL WEATHER SERVICE CHARLESTON SC
1200 AM EDT SUN AUG 20 2017

NOTE: "FAIR" INDICATES FEW OR NO CLOUDS BELOW 12,000 FEET WITH NO
SIGNIFICANT WEATHER AND/OR OBSTRUCTIONS TO VISIBILITY.

NOT ALL STATIONS ARE QUALITY CONTROLLED. USE DATA WITH CAUTION...
ESPECIALLY DEWPOINT OBSERVATIONS.

SCZ027-030-031-034>040-042>050-200500-
...SOUTHEAST SOUTH CAROLINA...

CITY           SKY/WX    TMP DP  RH WIND       PRES   REMARKS
N CHARLESTON   CLEAR     80  79  96 SW6       29.99R
WATERFRONT PRK   N/A     84  81  90 VRB3      29.83R HX  99
JOHNS ISLAND   FAIR      82  81  94 CALM      29.99R HX  95
PINOPOLIS        N/A     81  79  94 VRB3      29.91R
MONCKS CORNER  FAIR      77  75  94 CALM      29.99R
SUMMERVILLE    FAIR      79  77  94 CALM      30.00R
BEAUFORT MCAS  CLEAR     83  81  94 S3        29.99R HX  97
BEAUFORT ARPT  FAIR      82  79  89 SW3       29.98S HX  93
HILTON HEAD IS PTCLDY    84  81  89 S3        29.99S HX  98
WALTERBORO     PTCLDY    79  77  94 CALM      30.00R
ALLENDALE      NOT AVBL

...SOUTHERN MIDLANDS AND PEE DEE...

CITY           SKY/WX    TMP DP  RH WIND       PRES   REMARKS
GEORGETOWN     FAIR      79  79 100 S3        30.00R
KINGSTREE      FAIR      79  77  94 CALM      29.98R
ORANGEBURG     PTCLDY    76  72  87 CALM      29.99R
BARNWELL       FAIR      77  73  88 CALM      29.99R
AIKEN          FAIR      77  68  73 W3        30.04R
MANNING        FAIR      79  79 100 MISG      29.99R
COLUMBIA       CLEAR     82  68  62 W5        29.97R
SUMTER         PTCLDY    78  69  74 CALM      29.96R
FLORENCE       CLEAR     79  77  94 CALM      29.99R
MYRTLE BEACH   NOT AVBL
N MYRTLE BEACH MOCLDY    82  80  94 SW13      29.99R HX  94

$$

GAZ063-065-086>088-099>101-113>116-118-119-134>141-150-200500-
...SOUTHEAST GEORGIA...

CITY           SKY/WX    TMP DP  RH WIND       PRES   REMARKS
SAVANNAH ARPT  PTCLDY    82  78  88 CALM      29.99R HX  91
HUNTER AAF     CLEAR     82  77  86 CALM      29.97R
FORT STEWART   PTCLDY    79  74  85 CALM      29.97R
STATESBORO     PTCLDY    77  71  83 CALM      30.00R
SYLVANIA       PTCLDY    75  74  98 CALM      30.00S
CLAXTON        FAIR      77  75  94 CALM      29.99S

...CSRA...CENTRAL AND FAR SOUTHEAST GEORGIA...

CITY           SKY/WX    TMP DP  RH WIND       PRES   REMARKS
THOMSON        CLEAR     73  71  95 CALM      30.06R
AUGUSTA-BUSH   CLEAR     76  73  91 CALM      29.98R
AUGUSTA-DANIEL CLEAR     84  64  50 NW7       30.00S
SWAINSBORO     FAIR      73  72  94 CALM      30.01S
VIDALIA        PTCLDY    81  72  74 CALM      30.00R
EASTMAN        FAIR      74  73  96 CALM      30.03R
HAZLEHURST     FAIR      78  66  66 CALM      29.99R
ALMA           PTCLDY    79  74  84 S3        30.00R
WAYCROSS       PTCLDY    80  74  82 S3        30.00R
JESUP          FAIR      81  75  83 CALM      30.00R
BAXLEY         FAIR      77  73  88 CALM      29.99S
BRUNSWICK      MOCLDY    81  75  83 S5        30.00R
SAINT SIMONS   MOCLDY    84  76  76 S6        29.99R HX  93

$$

SCZ027-028-034-036>038-045-046-048>050-GAZ119-141-200500-
...LAKE AND SUPPLEMENTAL COASTAL OBSERVATIONS...

STATION/POSITION TIME  TEMP    WIND        PRES    WAVE   SWELL
                       AIR SEA DIR/SP/G            HT/PER HT/PER/DIR
                 (UTC) (F)     (DEG/KT/KT) (MB)    (FT/S) (FT/S/D)
WINYAH BAY       0245   83     220/  5     1015.0
LAKE MURRAY      0320   83        CALM     1014.6
ACE BASIN NERRS  0245   83        CALM     1015.0
FORT PULASKI     0348   84 87  210/  4/  6 1015.8R
SAPELO ISLAND    0300   83     180/  5     1015.0

$$

ANZ835-935-AMZ111-154-330-350-352-354-370-450-454-472-200500-
...C-MAN AND BUOY OBSERVATIONS...

STATION/POSITION TIME  TEMP    WIND        PRES    WAVE   SWELL
                       AIR SEA DIR/SP/G            HT/PER HT/PER/DIR
                 (UTC) (F)     (DEG/KT/KT) (MB)    (FT/S) (FT/S/D)
BUOY 41004       0350   84 84  200/ 12/ 16 1015.2R   3/ 8   2/120/ 8
BUOY 41008       0350   85 85  170/ 12/ 14 1015.2R   2/ 9   2/110/ 9
FOLLY BEACH CMAN 0300   84     210/ 12/ 13 1015.7R
CAPERS NEARSHORE 0308   82 85  220/ 12/ 17 1015.0R
FRIPP NEARSHORE  0308   85     210/ 14/ 17 1015.0R


STATION/POSITION TIME  TEMP    WIND        PRES    WAVE   SWELL
                       AIR SEA DIR/SP/G            HT/PER HT/PER/DIR
                 (UTC) (F)     (DEG/KT/KT) (MB)    (FT/S) (FT/S/D)
5E ST. MARYS GA  0330      84                N/A     2/10
FRYING PAN BUOY  0350   84 84  210/ 12/ 16 1015.6R   4/ 5   2/130/ 8
BUOY 41025       0350   83 83  210/ 12/ 14 1015.3R   3/ 9   2/110/ 9
CAPE LOOKOUT NC  0300   81     220/  5/  6 1015.0R
BUOY 41002       0350   83 84  180/ 14/ 16 1017.6R   4/ 6   3/ 90/ 8
BUOY 41010       0350   84 85  150/ 12/ 16 1016.8R   3/ 9   3/110/ 9
ST AUGUSTINE FL  0400   81 83  250/  3/  4 1016.4R


$$




USA.gov is the U.S. government's official web portal to all federal, state and local government web resources and services.